WetterOnline ( https://www.wetteronline.at )

Wetter aktuell Geisenheim

Aktuelles Wetter: Geisenheim (110m)

6-stündlich | Neueste Meldungen
Ortszeit Temperatur Wetter
Di, 20.08. 2:00 14.7° C fast wolkenlos
Mo, 19.08. 20:00 21.4° C leicht bewölkt
Mo, 19.08. 14:00 22.8° C leicht bewölkt
Mo, 19.08. 8:00 16.9° C bedeckt
Mo, 19.08. 2:00 17.7° C bedeckt
So, 18.08. 20:00 22.1° C wolkig
So, 18.08. 14:00 28.1° C leicht bewölkt
So, 18.08. 8:00 19.0° C bewölkt
Ortszeit Temperatur Wetter
Di, 20.08. 2:00 14.7° C fast wolkenlos
Di, 20.08. 1:40 14.6° C leicht bewölkt
Di, 20.08. 1:30 15.1° C wolkig
Di, 20.08. 1:20 15.1° C wolkig
Di, 20.08. 1:10 15.5° C wolkig
Di, 20.08. 1:00 16.9° C leicht bewölkt
Di, 20.08. 0:50 16.9° C leicht bewölkt
Di, 20.08. 0:30 17.0° C leicht bewölkt
Di, 20.08. 0:00 17.6° C leicht bewölkt
Mo, 19.08. 23:30 17.9° C bewölkt
Mo, 19.08. 23:00 18.5° C bewölkt
Ortszeit Relative Feuchte Sichtweite
Di, 20.08. 2:00 76% 50 km
Mo, 19.08. 20:00 48% 60 km
Mo, 19.08. 14:00 42% 50 km
Mo, 19.08. 8:00 87% >70 km
Mo, 19.08. 2:00 82% >70 km
So, 18.08. 20:00 81% 65 km
So, 18.08. 14:00 50% 60 km
So, 18.08. 8:00 90% 45 km
Ortszeit Relative Feuchte Sichtweite
Di, 20.08. 2:00 76% 50 km
Di, 20.08. 1:40 75% -
Di, 20.08. 1:30 75% 55 km
Di, 20.08. 1:20 75% -
Di, 20.08. 1:10 73% -
Di, 20.08. 1:00 69% 55 km
Di, 20.08. 0:50 69% -
Di, 20.08. 0:30 63% 55 km
Di, 20.08. 0:00 60% 60 km
Mo, 19.08. 23:30 59% 60 km
Mo, 19.08. 23:00 57% 55 km
Ortszeit Niederschlagsmenge Niederschlagsart
Di, 20.08. 2:00 0.0 l/m2 in 6 Std. -
Mo, 19.08. 20:00 0.0 l/m2 in 12 Std. -
Mo, 19.08. 14:00 0.0 l/m2 in 6 Std. -
Mo, 19.08. 8:00 0.1 l/m2 in 12 Std. -
Mo, 19.08. 2:00 0.1 l/m2 in 6 Std. Regen
So, 18.08. 20:00 0.9 l/m2 in 12 Std. Regen
So, 18.08. 14:00 0.0 l/m2 in 6 Std. -
So, 18.08. 8:00 5 l/m2 in 12 Std. Regen
Ortszeit Niederschlagsmenge Niederschlagsart
Di, 20.08. 2:00 0.0 l/m2 in 1 Std. -
Di, 20.08. 1:40 keine Meldung -
Di, 20.08. 1:30 0.0 l/m2 in 1 Std. -
Di, 20.08. 1:20 keine Meldung -
Di, 20.08. 1:10 keine Meldung -
Di, 20.08. 1:00 0.0 l/m2 in 1 Std. -
Di, 20.08. 0:50 keine Meldung -
Di, 20.08. 0:30 0.0 l/m2 in 1 Std. -
Di, 20.08. 0:00 0.0 l/m2 in 1 Std. -
Mo, 19.08. 23:30 0.0 l/m2 in 1 Std. -
Mo, 19.08. 23:00 0.0 l/m2 in 1 Std. -
Ortszeit Stärke Spitze Richtung
km/h Bft. km/h Grad Sektor
Di, 20.08. 2:00 7 2 22 320° NW
Mo, 19.08. 20:00 11 2 32 330° NW
Mo, 19.08. 14:00 15 3 31 250° W
Mo, 19.08. 8:00 0 0 11 - -
Mo, 19.08. 2:00 7 2 32 320° NW
So, 18.08. 20:00 11 2 54 280° W
So, 18.08. 14:00 37 5 67 260° W
So, 18.08. 8:00 6 1 11 20° N
Ortszeit Stärke Spitze Richtung
km/h Bft. km/h Grad Sektor
Di, 20.08. 2:00 7 2 11 320° NW
Di, 20.08. 1:40 4 1 - 340° N
Di, 20.08. 1:30 6 1 7 280° W
Di, 20.08. 1:20 6 1 - 280° W
Di, 20.08. 1:10 4 1 - 270° W
Di, 20.08. 1:00 0 0 18 - -
Di, 20.08. 0:50 0 0 - 40° NO
Di, 20.08. 0:30 4 1 18 350° N
Di, 20.08. 0:00 15 3 20 330° NW
Mo, 19.08. 23:30 18 3 22 340° N
Mo, 19.08. 23:00 15 3 20 330° NW
Ortszeit Untergrenze Bedeckung Gattung
total tief tief mittel hoch
Di, 20.08. 2:00 10500 m 1/8 0/8 - - -
Mo, 19.08. 20:00 2400 m 5/8 2/8 - - -
Mo, 19.08. 14:00 2100 m 4/8 4/8 - - -
Mo, 19.08. 8:00 1500 m 8/8 8/8 - - -
Mo, 19.08. 2:00 4800 m 8/8 8/8 - - -
So, 18.08. 20:00 1170 m 8/8 2/8 - - -
So, 18.08. 14:00 1500 m 6/8 1/8 - - -
So, 18.08. 8:00 240 m 8/8 7/8 - - -
Ortszeit Bedeckungsgrad in Achtel und Wolkenuntergrenze
Di, 20.08. 2:00 1(10500m)
Di, 20.08. 1:40 3(10500m) 5(10500m)
Di, 20.08. 1:30 7(10500m)
Di, 20.08. 1:20 7(10500m)
Di, 20.08. 1:10 7(10500m)
Di, 20.08. 1:00 2(2100m) 4(10500m)
Di, 20.08. 0:50 2(2100m) 4(10500m)
Di, 20.08. 0:30 2(2100m)
Di, 20.08. 0:00 4(2100m)
Mo, 19.08. 23:30 7(2100m) 7(7800m)
Mo, 19.08. 23:00 7(2100m) 7(7800m)
Ortszeit Luftdruck NN (hPa) Tendenz (hPa in 3 Std.)
Di, 20.08. 2:00 1021 + 1,3
Mo, 19.08. 20:00 1018 + 0,5
Mo, 19.08. 14:00 1017 + 0,6
Mo, 19.08. 8:00 1016 + 0,9
Mo, 19.08. 2:00 1013 + 1,7
So, 18.08. 20:00 1010 + 2,4
So, 18.08. 14:00 1007 - 0,5
So, 18.08. 8:00 1008 + 0,2
Ortszeit Luftdruck NN (hPa) Tendenz (hPa in 3 Std.)
Di, 20.08. 2:00 1021 + 1,3
Di, 20.08. 1:40 1021 keine Meldung
Di, 20.08. 1:30 1021 + 1,4
Di, 20.08. 1:20 1021 keine Meldung
Di, 20.08. 1:10 1021 keine Meldung
Di, 20.08. 1:00 1021 + 1,7
Di, 20.08. 0:50 1021 keine Meldung
Di, 20.08. 0:30 1021 + 1,6
Di, 20.08. 0:00 1020 + 1,5
Mo, 19.08. 23:30 1020 + 1,6
Mo, 19.08. 23:00 1020 + 1,7
Ortszeit Schneehöhe (cm)
Di, 20.08. 2:00 -
Mo, 19.08. 20:00 -
Mo, 19.08. 14:00 -
Mo, 19.08. 8:00 -
Mo, 19.08. 2:00 -
So, 18.08. 20:00 -
So, 18.08. 14:00 -
So, 18.08. 8:00 -
Ortszeit Schneehöhe (cm)
Di, 20.08. 2:00 -
Di, 20.08. 1:40 -
Di, 20.08. 1:30 -
Di, 20.08. 1:20 -
Di, 20.08. 1:10 -
Di, 20.08. 1:00 -
Di, 20.08. 0:50 -
Di, 20.08. 0:30 -
Di, 20.08. 0:00 -
Mo, 19.08. 23:30 -
Mo, 19.08. 23:00 -
Link zu dieser Seite / Seite empfehlen

Das Wetter in ...